La rose des vents
Donnes mto: Semaine 15/12/08 - 21/12/08 (S 51)
Date Horaire Temp. E. Hum. E. P.atmo. Pluie Vent 1mn Direction Ensoleilleme Ev.Tr. Solaire P. de rose Temp au vent Rafales
15/12/2008 00:00 6,9 C 94 % 998,3 hPa 3,0 l/m 3,8 km/h (1 Bft) N-NO 0,00 h 0,000 mm 0 W/m 6,0 C 6,6 C 6,1 km/h (2 Bft)
15/12/2008 01:00 6,7 C 95 % 998,7 hPa 0,6 l/m 5,4 km/h (1 Bft) N-NO 0,00 h 0,000 mm 0 W/m 5,9 C 5,9 C 8,9 km/h (2 Bft)
15/12/2008 02:00 6,4 C 95 % 998,7 hPa 0,0 l/m 3,5 km/h (1 Bft) N 0,00 h 0,000 mm 0 W/m 5,7 C 6,2 C 6,6 km/h (2 Bft)
15/12/2008 03:00 6,5 C 95 % 998,7 hPa 1,2 l/m 5,1 km/h (1 Bft) N 0,00 h 0,000 mm 0 W/m 5,7 C 5,8 C 8,7 km/h (2 Bft)
15/12/2008 04:00 6,4 C 95 % 998,5 hPa 0,4 l/m 4,8 km/h (1 Bft) O-NO 0,00 h 0,000 mm 0 W/m 5,7 C 5,8 C 8,1 km/h (2 Bft)
15/12/2008 05:00 6,2 C 96 % 998,6 hPa 0,4 l/m 1,5 km/h (1 Bft) E 0,00 h 0,000 mm 0 W/m 5,6 C 6,2 C 2,5 km/h (1 Bft)
15/12/2008 06:00 6,1 C 96 % 999,5 hPa 0,0 l/m 1,8 km/h (1 Bft) E 0,00 h 0,000 mm 0 W/m 5,5 C 6,0 C 2,9 km/h (1 Bft)
15/12/2008 07:00 6,3 C 96 % 999,7 hPa 0,0 l/m 5,9 km/h (2 Bft) N 0,00 h 0,000 mm 0 W/m 5,7 C 5,3 C 9,4 km/h (2 Bft)
15/12/2008 08:00 6,5 C 96 % 1000,4 hPa 0,2 l/m 6,3 km/h (2 Bft) N-NE 0,00 h 0,000 mm 10 W/m 5,9 C 5,3 C 10,4 km/h (2 Bft)
15/12/2008 09:00 6,7 C 96 % 1001,1 hPa 1,2 l/m 5,3 km/h (1 Bft) N 0,00 h 0,000 mm 22 W/m 6,1 C 5,9 C 8,9 km/h (2 Bft)
15/12/2008 10:00 6,9 C 96 % 1001,7 hPa 3,0 l/m 5,7 km/h (1 Bft) N 0,00 h 0,025 mm 49 W/m 6,3 C 6,1 C 9,7 km/h (2 Bft)
15/12/2008 11:00 7,1 C 96 % 1001,9 hPa 2,0 l/m 8,4 km/h (2 Bft) N-NE 0,00 h 0,025 mm 49 W/m 6,5 C 5,7 C 13,8 km/h (3 Bft)
15/12/2008 12:00 7,2 C 96 % 1001,8 hPa 0,2 l/m 14,7 km/h (3 Bft) N-NE 0,00 h 0,025 mm 55 W/m 6,7 C 4,6 C 23,3 km/h (4 Bft)
15/12/2008 13:00 7,7 C 95 % 1002,5 hPa 0,0 l/m 15,2 km/h (3 Bft) N-NE 0,00 h 0,025 mm 56 W/m 7,0 C 5,0 C 23,5 km/h (4 Bft)
15/12/2008 14:00 8,4 C 93 % 1003,0 hPa 0,2 l/m 14,7 km/h (3 Bft) N-NE 0,00 h 0,051 mm 55 W/m 7,4 C 6,0 C 23,3 km/h (4 Bft)
15/12/2008 15:00 9,4 C 89 % 1003,2 hPa 0,2 l/m 16,8 km/h (3 Bft) N-NE 0,00 h 0,051 mm 33 W/m 7,6 C 7,0 C 25,1 km/h (4 Bft)
15/12/2008 16:00 8,7 C 83 % 1004,2 hPa 0,2 l/m 14,6 km/h (3 Bft) N 0,00 h 0,051 mm 8 W/m 5,9 C 6,4 C 23,8 km/h (4 Bft)
15/12/2008 17:00 8,8 C 81 % 1004,7 hPa 0,2 l/m 10,2 km/h (2 Bft) N-NE 0,00 h 0,025 mm 0 W/m 5,7 C 7,2 C 16,9 km/h (3 Bft)
15/12/2008 18:00 8,9 C 82 % 1004,6 hPa 0,0 l/m 14,3 km/h (3 Bft) N-NE 0,00 h 0,025 mm 0 W/m 5,9 C 6,7 C 22,4 km/h (4 Bft)
15/12/2008 19:00 9,9 C 75 % 1004,6 hPa 0,0 l/m 18,9 km/h (3 Bft) N-NE 0,00 h 0,051 mm 0 W/m 5,6 C 8,8 C 29,3 km/h (5 Bft)
15/12/2008 20:00 10,7 C 68 % 1004,4 hPa 0,2 l/m 17,5 km/h (3 Bft) N-NE 0,00 h 0,076 mm 0 W/m 5,1 C 10,7 C 25,7 km/h (4 Bft)
15/12/2008 21:00 8,7 C 79 % 1005,0 hPa 1,8 l/m 14,4 km/h (3 Bft) N-NE 0,00 h 0,076 mm 0 W/m 5,2 C 6,5 C 21,4 km/h (4 Bft)
15/12/2008 22:00 7,8 C 89 % 1004,7 hPa 0,8 l/m 19,1 km/h (3 Bft) N-NE 0,00 h 0,051 mm 0 W/m 6,1 C 4,8 C 29,1 km/h (5 Bft)
15/12/2008 23:00 8,1 C 89 % 1004,9 hPa 0,6 l/m 24,9 km/h (4 Bft) N-NE 0,00 h 0,025 mm 0 W/m 6,4 C 4,5 C 37,7 km/h (5 Bft)
16/12/2008 00:00 7,9 C 91 % 1005,5 hPa 1,2 l/m 20,7 km/h (4 Bft) N-NE 0,00 h 0,051 mm 0 W/m 6,4 C 4,6 C 31,6 km/h (5 Bft)
16/12/2008 01:00 7,8 C 92 % 1005,2 hPa 1,8 l/m 19,0 km/h (3 Bft) N-NE 0,00 h 0,025 mm 0 W/m 6,6 C 4,7 C 28,4 km/h (4 Bft)
16/12/2008 02:00 7,6 C 93 % 1005,0 hPa 2,4 l/m 20,6 km/h (4 Bft) N-NE 0,00 h 0,025 mm 0 W/m 6,6 C 4,3 C 31,3 km/h (5 Bft)
16/12/2008 03:00 7,6 C 94 % 1004,9 hPa 3,2 l/m 20,2 km/h (4 Bft) N-NE 0,00 h 0,025 mm 0 W/m 6,7 C 4,3 C 30,9 km/h (5 Bft)
16/12/2008 04:00 7,5 C 95 % 1005,1 hPa 3,0 l/m 16,0 km/h (3 Bft) N-NE 0,00 h 0,025 mm 0 W/m 6,7 C 4,7 C 24,4 km/h (4 Bft)
16/12/2008 05:00 7,3 C 95 % 1004,9 hPa 1,2 l/m 16,5 km/h (3 Bft) N-NE 0,00 h 0,025 mm 0 W/m 6,6 C 4,4 C 24,5 km/h (4 Bft)
16/12/2008 06:00 7,3 C 95 % 1004,4 hPa 0,8 l/m 17,9 km/h (3 Bft) NE 0,00 h 0,025 mm 0 W/m 6,5 C 4,2 C 26,1 km/h (4 Bft)
16/12/2008 07:00 7,2 C 95 % 1004,0 hPa 0,6 l/m 13,0 km/h (3 Bft) N-NE 0,00 h 0,025 mm 0 W/m 6,5 C 4,9 C 19,7 km/h (3 Bft)
16/12/2008 08:00 7,2 C 98 % 1004,2 hPa 1,4 l/m 13,2 km/h (3 Bft) N-NE 0,00 h 0,025 mm 6 W/m 6,9 C 4,8 C 20,8 km/h (4 Bft)
16/12/2008 09:00 7,3 C 100 % 1004,2 hPa 1,0 l/m 9,3 km/h (2 Bft) N 0,00 h 0,025 mm 12 W/m 7,3 C 5,6 C 15,6 km/h (3 Bft)
16/12/2008 10:00 7,6 C 100 % 1004,3 hPa 0,4 l/m 9,2 km/h (2 Bft) N-NE 0,00 h 0,000 mm 15 W/m 7,6 C 6,0 C 14,7 km/h (3 Bft)
16/12/2008 11:00 7,7 C 100 % 1005,2 hPa 6,8 l/m 10,4 km/h (2 Bft) NE 0,00 h 0,000 mm 14 W/m 7,7 C 5,9 C 15,6 km/h (3 Bft)
16/12/2008 12:00 6,8 C 100 % 1006,4 hPa 5,4 l/m 9,4 km/h (2 Bft) SO 0,00 h 0,000 mm 9 W/m 6,8 C 5,1 C 13,1 km/h (3 Bft)
16/12/2008 13:00 5,4 C 100 % 1007,1 hPa 5,2 l/m 10,0 km/h (2 Bft) NO 0,00 h 0,000 mm 10 W/m 5,4 C 3,3 C 14,6 km/h (3 Bft)
16/12/2008 14:00 4,7 C 100 % 1006,8 hPa 2,8 l/m 10,9 km/h (2 Bft) NO 0,00 h 0,000 mm 55 W/m 4,6 C 2,2 C 16,1 km/h (3 Bft)
16/12/2008 15:00 5,6 C 100 % 1005,9 hPa 0,0 l/m 2,7 km/h (1 Bft) N 0,10 h 0,025 mm 53 W/m 5,6 C 5,4 C 4,6 km/h (1 Bft)
16/12/2008 16:00 5,7 C 100 % 1005,9 hPa 0,0 l/m 1,8 km/h (1 Bft) N 0,00 h 0,000 mm 13 W/m 5,7 C 5,6 C 3,3 km/h (1 Bft)
16/12/2008 17:00 5,3 C 100 % 1006,2 hPa 0,0 l/m 1,6 km/h (1 Bft) E-NE 0,00 h 0,000 mm 0 W/m 5,3 C 5,2 C 2,6 km/h (1 Bft)
16/12/2008 18:00 5,1 C 100 % 1006,6 hPa 0,0 l/m 1,7 km/h (1 Bft) NO 0,00 h 0,000 mm 0 W/m 5,1 C 5,0 C 3,2 km/h (1 Bft)
16/12/2008 19:00 5,3 C 100 % 1006,7 hPa 0,0 l/m 2,7 km/h (1 Bft) N-NO 0,00 h 0,000 mm 0 W/m 5,3 C 5,0 C 4,2 km/h (1 Bft)
16/12/2008 20:00 5,2 C 100 % 1007,0 hPa 0,0 l/m 1,8 km/h (1 Bft) N-NO 0,00 h 0,000 mm 0 W/m 5,2 C 5,1 C 2,9 km/h (1 Bft)
16/12/2008 21:00 5,4 C 100 % 1007,3 hPa 0,0 l/m 3,0 km/h (1 Bft) N 0,00 h 0,000 mm 0 W/m 5,4 C 5,2 C 5,1 km/h (1 Bft)
16/12/2008 22:00 5,7 C 100 % 1007,3 hPa 0,0 l/m 2,8 km/h (1 Bft) N-NO 0,00 h 0,000 mm 0 W/m 5,7 C 5,5 C 5,3 km/h (1 Bft)
16/12/2008 23:00 5,7 C 100 % 1007,6 hPa 0,0 l/m 1,5 km/h (1 Bft) N 0,00 h 0,000 mm 0 W/m 5,7 C 5,7 C 3,0 km/h (1 Bft)
17/12/2008 00:00 5,7 C 100 % 1007,5 hPa 0,2 l/m 3,1 km/h (1 Bft) O-NO 0,00 h 0,000 mm 0 W/m 5,7 C 5,4 C 4,9 km/h (1 Bft)
17/12/2008 01:00 5,5 C 100 % 1006,9 hPa 0,0 l/m 6,5 km/h (2 Bft) O 0,00 h 0,000 mm 0 W/m 5,5 C 4,2 C 8,3 km/h (2 Bft)
17/12/2008 02:00 4,8 C 100 % 1006,9 hPa 0,0 l/m 2,3 km/h (1 Bft) N 0,00 h 0,000 mm 0 W/m 4,8 C 4,6 C 3,9 km/h (1 Bft)
17/12/2008 03:00 4,3 C 100 % 1006,6 hPa 0,0 l/m 3,1 km/h (1 Bft) NO 0,00 h 0,000 mm 0 W/m 4,3 C 3,9 C 4,3 km/h (1 Bft)
17/12/2008 04:00 4,6 C 100 % 1006,5 hPa 0,0 l/m 4,2 km/h (1 Bft) O-NO 0,00 h 0,000 mm 0 W/m 4,6 C 4,0 C 6,1 km/h (2 Bft)
17/12/2008 05:00 4,7 C 100 % 1006,5 hPa 0,0 l/m 4,9 km/h (1 Bft) O-NO 0,00 h 0,000 mm 0 W/m 4,7 C 3,9 C 6,9 km/h (2 Bft)
17/12/2008 06:00 4,8 C 100 % 1006,4 hPa 0,0 l/m 5,5 km/h (1 Bft) O-NO 0,00 h 0,000 mm 0 W/m 4,8 C 3,7 C 8,2 km/h (2 Bft)
17/12/2008 07:00 5,2 C 100 % 1006,4 hPa 0,0 l/m 3,9 km/h (1 Bft) NE 0,00 h 0,000 mm 0 W/m 5,2 C 4,6 C 6,5 km/h (2 Bft)
17/12/2008 08:00 5,7 C 100 % 1006,9 hPa 0,0 l/m 3,4 km/h (1 Bft) O-NO 0,00 h 0,000 mm 26 W/m 5,7 C 5,3 C 5,2 km/h (1 Bft)
17/12/2008 09:00 6,2 C 100 % 1007,2 hPa 0,0 l/m 4,3 km/h (1 Bft) NO 0,00 h 0,000 mm 63 W/m 6,2 C 5,7 C 6,4 km/h (2 Bft)
17/12/2008 10:00 7,7 C 100 % 1007,7 hPa 0,0 l/m 1,9 km/h (1 Bft) N-NO 0,75 h 0,000 mm 253 W/m 7,7 C 7,6 C 3,3 km/h (1 Bft)
17/12/2008 11:00 11,2 C 100 % 1007,2 hPa 0,0 l/m 3,7 km/h (1 Bft) S-SE 1,00 h 0,000 mm 372 W/m 11,2 C 11,2 C 5,6 km/h (1 Bft)
17/12/2008 12:00 11,7 C 100 % 1006,5 hPa 0,0 l/m 8,1 km/h (2 Bft) S-SE 0,87 h 0,000 mm 346 W/m 11,7 C 11,7 C 11,5 km/h (2 Bft)
17/12/2008 13:00 11,1 C 100 % 1006,0 hPa 0,0 l/m 7,0 km/h (2 Bft) S-SE 0,32 h 0,000 mm 214 W/m 11,1 C 11,1 C 10,7 km/h (2 Bft)
17/12/2008 14:00 10,4 C 100 % 1005,6 hPa 0,0 l/m 7,0 km/h (2 Bft) S-SE 0,02 h 0,000 mm 110 W/m 10,4 C 10,4 C 9,8 km/h (2 Bft)
17/12/2008 15:00 9,9 C 100 % 1005,3 hPa 0,0 l/m 6,6 km/h (2 Bft) S-SE 0,00 h 0,000 mm 44 W/m 9,9 C 9,3 C 9,5 km/h (2 Bft)
17/12/2008 16:00 9,8 C 100 % 1005,3 hPa 0,0 l/m 0,8 km/h (0 Bft) SE 0,25 h 0,000 mm 22 W/m 9,8 C 9,8 C 1,7 km/h (1 Bft)
17/12/2008 17:00 9,0 C 100 % 1005,5 hPa 0,0 l/m 0,4 km/h (0 Bft) NE 0,00 h 0,000 mm 0 W/m 9,0 C 9,0 C 1,0 km/h (0 Bft)
17/12/2008 18:00 8,3 C 100 % 1005,9 hPa 0,0 l/m 3,4 km/h (1 Bft) E-NE 0,00 h 0,000 mm 0 W/m 8,3 C 8,1 C 5,0 km/h (1 Bft)
17/12/2008 19:00 8,2 C 100 % 1006,3 hPa 0,0 l/m 4,7 km/h (1 Bft) N-NE 0,00 h 0,000 mm 0 W/m 8,2 C 7,7 C 7,0 km/h (2 Bft)
17/12/2008 20:00 7,9 C 100 % 1006,4 hPa 0,0 l/m 4,5 km/h (1 Bft) NE 0,00 h 0,000 mm 0 W/m 7,9 C 7,4 C 6,7 km/h (2 Bft)
17/12/2008 21:00 7,4 C 100 % 1006,3 hPa 0,0 l/m 2,2 km/h (1 Bft) N 0,00 h 0,000 mm 0 W/m 7,4 C 7,4 C 4,1 km/h (1 Bft)
17/12/2008 22:00 7,4 C 100 % 1006,4 hPa 0,0 l/m 4,7 km/h (1 Bft) O-NO 0,00 h 0,000 mm 0 W/m 7,4 C 6,8 C 6,8 km/h (2 Bft)
17/12/2008 23:00 6,1 C 100 % 1006,2 hPa 0,0 l/m 7,7 km/h (2 Bft) O 0,00 h 0,000 mm 0 W/m 6,1 C 4,6 C 10,7 km/h (2 Bft)
18/12/2008 00:00 5,5 C 99 % 1006,0 hPa 0,0 l/m 11,3 km/h (2 Bft) O 0,00 h 0,000 mm 0 W/m 5,5 C 3,1 C 15,0 km/h (3 Bft)
18/12/2008 01:00 5,7 C 99 % 1005,6 hPa 0,0 l/m 6,3 km/h (2 Bft) O-NO 0,00 h 0,025 mm 0 W/m 5,5 C 4,5 C 8,7 km/h (2 Bft)
18/12/2008 02:00 5,0 C 90 % 1005,7 hPa 0,0 l/m 6,9 km/h (2 Bft) O-NO 0,00 h 0,025 mm 0 W/m 3,5 C 3,5 C 9,4 km/h (2 Bft)
18/12/2008 03:00 5,0 C 85 % 1005,8 hPa 0,0 l/m 6,7 km/h (2 Bft) O-NO 0,00 h 0,025 mm 0 W/m 2,6 C 3,5 C 9,0 km/h (2 Bft)
18/12/2008 04:00 4,8 C 83 % 1005,9 hPa 0,0 l/m 5,8 km/h (2 Bft) O-NO 0,00 h 0,025 mm 0 W/m 2,1 C 3,7 C 8,1 km/h (2 Bft)
18/12/2008 05:00 4,8 C 82 % 1006,2 hPa 0,0 l/m 4,0 km/h (1 Bft) O-NO 0,00 h 0,025 mm 0 W/m 2,1 C 4,3 C 6,1 km/h (2 Bft)
18/12/2008 06:00 5,1 C 80 % 1006,3 hPa 0,0 l/m 3,5 km/h (1 Bft) O-NO 0,00 h 0,025 mm 0 W/m 2,0 C 4,7 C 4,7 km/h (1 Bft)
18/12/2008 07:00 4,9 C 77 % 1006,6 hPa 0,0 l/m 2,3 km/h (1 Bft) O-NO 0,00 h 0,025 mm 5 W/m 1,3 C 4,8 C 3,2 km/h (1 Bft)
18/12/2008 08:00 5,7 C 76 % 1006,9 hPa 0,0 l/m 3,1 km/h (1 Bft) NO 0,80 h 0,000 mm 70 W/m 1,7 C 5,6 C 4,6 km/h (1 Bft)
18/12/2008 09:00 8,4 C 75 % 1007,2 hPa 0,0 l/m 0,7 km/h (0 Bft) SE 1,00 h 0,051 mm 185 W/m 4,1 C 8,4 C 1,3 km/h (1 Bft)
18/12/2008 10:00 9,2 C 72 % 1007,5 hPa 0,0 l/m 4,2 km/h (1 Bft) O 0,38 h 0,076 mm 158 W/m 4,3 C 8,8 C 5,8 km/h (2 Bft)
18/12/2008 11:00 9,8 C 66 % 1007,8 hPa 0,0 l/m 3,3 km/h (1 Bft) O-NO 0,37 h 0,102 mm 224 W/m 3,7 C 9,7 C 5,2 km/h (1 Bft)
18/12/2008 12:00 13,1 C 71 % 1007,2 hPa 0,0 l/m 2,8 km/h (1 Bft) E-NE 1,00 h 0,127 mm 378 W/m 7,7 C 13,1 C 4,3 km/h (1 Bft)
18/12/2008 13:00 13,0 C 64 % 1007,1 hPa 0,0 l/m 3,7 km/h (1 Bft) SE 1,00 h 0,203 mm 347 W/m 6,2 C 13,0 C 5,8 km/h (2 Bft)
18/12/2008 14:00 13,7 C 51 % 1006,9 hPa 0,0 l/m 5,5 km/h (1 Bft) SO 1,00 h 0,203 mm 277 W/m 3,7 C 13,7 C 7,9 km/h (2 Bft)
18/12/2008 15:00 13,8 C 50 % 1007,3 hPa 0,0 l/m 4,1 km/h (1 Bft) SO 1,00 h 0,178 mm 162 W/m 3,6 C 13,8 C 6,3 km/h (2 Bft)
18/12/2008 16:00 12,7 C 58 % 1008,0 hPa 0,0 l/m 1,3 km/h (1 Bft) SO 0,77 h 0,102 mm 41 W/m 4,6 C 12,7 C 2,3 km/h (1 Bft)
18/12/2008 17:00 9,8 C 65 % 1008,6 hPa 0,0 l/m 2,6 km/h (1 Bft) NO 0,00 h 0,025 mm 5 W/m 3,5 C 9,7 C 4,1 km/h (1 Bft)
18/12/2008 18:00 8,5 C 66 % 1009,2 hPa 0,0 l/m 4,3 km/h (1 Bft) O-NO 0,00 h 0,025 mm 0 W/m 2,5 C 8,2 C 5,9 km/h (2 Bft)
18/12/2008 19:00 8,5 C 60 % 1009,7 hPa 0,0 l/m 4,8 km/h (1 Bft) O-NO 0,00 h 0,025 mm 0 W/m 1,1 C 8,0 C 6,5 km/h (2 Bft)
18/12/2008 20:00 8,3 C 57 % 1010,2 hPa 0,0 l/m 5,0 km/h (1 Bft) O-NO 0,00 h 0,051 mm 0 W/m 0,3 C 7,8 C 7,1 km/h (2 Bft)
18/12/2008 21:00 8,2 C 53 % 1010,6 hPa 0,0 l/m 4,5 km/h (1 Bft) O-NO 0,00 h 0,051 mm 0 W/m -0,7 C 7,8 C 6,3 km/h (2 Bft)
18/12/2008 22:00 6,9 C 57 % 1011,1 hPa 0,0 l/m 1,7 km/h (1 Bft) NO 0,00 h 0,051 mm 0 W/m -1,1 C 6,8 C 2,7 km/h (1 Bft)
18/12/2008 23:00 7,2 C 55 % 1012,1 hPa 0,0 l/m 2,6 km/h (1 Bft) O-NO 0,00 h 0,025 mm 0 W/m -1,1 C 7,0 C 3,7 km/h (1 Bft)
19/12/2008 00:00 6,9 C 57 % 1013,0 hPa 0,0 l/m 5,3 km/h (1 Bft) NO 0,00 h 0,051 mm 0 W/m -0,9 C 6,2 C 7,2 km/h (2 Bft)
19/12/2008 01:00 7,5 C 58 % 1013,4 hPa 0,0 l/m 3,6 km/h (1 Bft) N 0,00 h 0,051 mm 0 W/m -0,3 C 7,2 C 6,0 km/h (2 Bft)
19/12/2008 02:00 7,3 C 60 % 1013,7 hPa 0,0 l/m 4,5 km/h (1 Bft) NO 0,00 h 0,051 mm 0 W/m 0,1 C 6,8 C 6,5 km/h (2 Bft)
19/12/2008 03:00 7,3 C 64 % 1014,1 hPa 0,0 l/m 3,6 km/h (1 Bft) O-NO 0,00 h 0,051 mm 0 W/m 0,8 C 6,9 C 5,3 km/h (1 Bft)
19/12/2008 04:00 6,5 C 65 % 1014,6 hPa 0,0 l/m 5,0 km/h (1 Bft) O 0,00 h 0,025 mm 0 W/m 0,5 C 5,9 C 7,2 km/h (2 Bft)
19/12/2008 05:00 6,7 C 62 % 1015,0 hPa 0,0 l/m 9,7 km/h (2 Bft) O 0,00 h 0,025 mm 0 W/m -0,1 C 4,8 C 13,7 km/h (3 Bft)
19/12/2008 06:00 6,8 C 61 % 1015,5 hPa 0,0 l/m 13,8 km/h (3 Bft) O 0,00 h 0,051 mm 0 W/m -0,3 C 4,1 C 18,1 km/h (3 Bft)
19/12/2008 07:00 6,7 C 60 % 1015,8 hPa 0,0 l/m 11,4 km/h (2 Bft) O 0,00 h 0,076 mm 5 W/m -0,5 C 4,5 C 15,4 km/h (3 Bft)
19/12/2008 08:00 7,3 C 57 % 1016,1 hPa 0,0 l/m 7,0 km/h (2 Bft) O 0,78 h 0,051 mm 47 W/m -0,7 C 6,1 C 9,2 km/h (2 Bft)
19/12/2008 09:00 8,0 C 61 % 1016,8 hPa 0,0 l/m 2,1 km/h (1 Bft) NE 0,92 h 0,051 mm 141 W/m 1,0 C 7,9 C 3,3 km/h (1 Bft)
19/12/2008 10:00 9,2 C 61 % 1017,5 hPa 0,0 l/m 1,4 km/h (1 Bft) O-SO 0,62 h 0,076 mm 213 W/m 1,9 C 9,2 C 2,3 km/h (1 Bft)
19/12/2008 11:00 11,5 C 57 % 1017,4 hPa 0,0 l/m 1,4 km/h (1 Bft) E 1,00 h 0,102 mm 354 W/m 3,4 C 11,5 C 2,8 km/h (1 Bft)
19/12/2008 12:00 13,2 C 51 % 1016,7 hPa 0,0 l/m 1,5 km/h (1 Bft) N-NE 1,00 h 0,178 mm 379 W/m 3,3 C 13,2 C 2,6 km/h (1 Bft)
19/12/2008 13:00 14,9 C 47 % 1016,2 hPa 0,0 l/m 4,4 km/h (1 Bft) S 1,00 h 0,203 mm 351 W/m 3,8 C 14,9 C 6,8 km/h (2 Bft)
19/12/2008 14:00 14,4 C 56 % 1016,2 hPa 0,0 l/m 2,5 km/h (1 Bft) E 0,93 h 0,229 mm 257 W/m 5,7 C 14,4 C 4,2 km/h (1 Bft)
19/12/2008 15:00 13,7 C 62 % 1016,5 hPa 0,0 l/m 2,3 km/h (1 Bft) E-NE 1,00 h 0,152 mm 156 W/m 6,5 C 13,7 C 3,7 km/h (1 Bft)
19/12/2008 16:00 11,7 C 66 % 1017,2 hPa 0,0 l/m 0,9 km/h (0 Bft) E-NE 0,07 h 0,102 mm 26 W/m 5,7 C 11,7 C 1,8 km/h (1 Bft)
19/12/2008 17:00 9,6 C 72 % 1018,0 hPa 0,0 l/m 1,1 km/h (0 Bft) NE 0,00 h 0,025 mm 0 W/m 4,7 C 9,6 C 1,5 km/h (1 Bft)
19/12/2008 18:00 8,9 C 72 % 1018,6 hPa 0,0 l/m 3,8 km/h (1 Bft) O-NO 0,00 h 0,000 mm 0 W/m 4,1 C 8,7 C 5,0 km/h (1 Bft)
19/12/2008 19:00 7,8 C 68 % 1018,7 hPa 0,0 l/m 5,3 km/h (1 Bft) NO 0,00 h 0,025 mm 0 W/m 2,3 C 7,2 C 6,9 km/h (2 Bft)
19/12/2008 20:00 8,3 C 63 % 1019,2 hPa 0,0 l/m 5,0 km/h (1 Bft) O-NO 0,00 h 0,025 mm 0 W/m 1,6 C 7,8 C 6,8 km/h (2 Bft)
19/12/2008 21:00 9,1 C 54 % 1019,3 hPa 0,0 l/m 5,0 km/h (1 Bft) NO 0,00 h 0,051 mm 0 W/m 0,3 C 8,7 C 6,7 km/h (2 Bft)
19/12/2008 22:00 9,4 C 51 % 1019,3 hPa 0,0 l/m 1,3 km/h (1 Bft) NO 0,00 h 0,051 mm 0 W/m -0,2 C 9,4 C 2,4 km/h (1 Bft)
19/12/2008 23:00 9,1 C 50 % 1019,0 hPa 0,0 l/m 1,8 km/h (1 Bft) NO 0,00 h 0,051 mm 0 W/m -0,7 C 9,0 C 2,2 km/h (1 Bft)
20/12/2008 00:00 8,8 C 48 % 1018,9 hPa 0,0 l/m 1,6 km/h (1 Bft) NO 0,00 h 0,051 mm 0 W/m -1,7 C 8,8 C 2,6 km/h (1 Bft)
20/12/2008 01:00 8,4 C 49 % 1018,5 hPa 0,0 l/m 2,8 km/h (1 Bft) N-NO 0,00 h 0,051 mm 0 W/m -1,7 C 8,2 C 4,3 km/h (1 Bft)
20/12/2008 02:00 9,0 C 47 % 1018,4 hPa 0,0 l/m 4,2 km/h (1 Bft) O 0,00 h 0,051 mm 0 W/m -1,7 C 8,7 C 5,4 km/h (1 Bft)
20/12/2008 03:00 9,1 C 46 % 1018,3 hPa 0,0 l/m 4,1 km/h (1 Bft) O 0,00 h 0,051 mm 0 W/m -2,0 C 8,7 C 5,0 km/h (1 Bft)
20/12/2008 04:00 8,9 C 46 % 1018,7 hPa 0,0 l/m 4,4 km/h (1 Bft) N 0,00 h 0,051 mm 0 W/m -2,0 C 8,5 C 5,7 km/h (1 Bft)
20/12/2008 05:00 8,2 C 49 % 1018,9 hPa 0,0 l/m 3,7 km/h (1 Bft) NO 0,00 h 0,051 mm 0 W/m -1,9 C 8,0 C 4,9 km/h (1 Bft)
20/12/2008 06:00 7,0 C 55 % 1019,9 hPa 0,0 l/m 3,8 km/h (1 Bft) NO 0,00 h 0,051 mm 0 W/m -1,6 C 6,7 C 5,3 km/h (1 Bft)
20/12/2008 07:00 6,9 C 56 % 1020,7 hPa 0,0 l/m 5,0 km/h (1 Bft) NO 0,00 h 0,051 mm 7 W/m -1,4 C 6,2 C 7,1 km/h (2 Bft)
20/12/2008 08:00 8,5 C 50 % 1021,3 hPa 0,0 l/m 5,4 km/h (1 Bft) O-NO 0,48 h 0,025 mm 40 W/m -1,3 C 7,9 C 8,4 km/h (2 Bft)
20/12/2008 09:00 9,8 C 50 % 1022,0 hPa 0,0 l/m 3,2 km/h (1 Bft) NO 0,93 h 0,051 mm 131 W/m -0,1 C 9,7 C 4,9 km/h (1 Bft)
20/12/2008 10:00 12,0 C 50 % 1022,6 hPa 0,0 l/m 0,2 km/h (0 Bft) NO 0,93 h 0,076 mm 199 W/m 1,8 C 12,0 C 0,6 km/h (0 Bft)
20/12/2008 11:00 14,0 C 42 % 1022,7 hPa 0,0 l/m 3,0 km/h (1 Bft) NO 1,00 h 0,102 mm 312 W/m 1,2 C 14,0 C 4,4 km/h (1 Bft)
20/12/2008 12:00 15,4 C 39 % 1022,5 hPa 0,0 l/m 3,9 km/h (1 Bft) S 1,00 h 0,178 mm 370 W/m 1,5 C 15,4 C 5,8 km/h (2 Bft)
20/12/2008 13:00 16,0 C 39 % 1022,2 hPa 0,0 l/m 2,4 km/h (1 Bft) S 1,00 h 0,229 mm 351 W/m 2,1 C 16,0 C 4,2 km/h (1 Bft)
20/12/2008 14:00 15,6 C 47 % 1021,6 hPa 0,0 l/m 6,2 km/h (2 Bft) S-SE 1,00 h 0,203 mm 270 W/m 4,2 C 15,6 C 8,5 km/h (2 Bft)
20/12/2008 15:00 14,6 C 51 % 1021,5 hPa 0,0 l/m 4,3 km/h (1 Bft) S 0,45 h 0,203 mm 108 W/m 4,7 C 14,6 C 6,3 km/h (2 Bft)
20/12/2008 16:00 12,4 C 55 % 1021,8 hPa 0,0 l/m 1,8 km/h (1 Bft) S 0,05 h 0,102 mm 23 W/m 3,7 C 12,4 C 3,0 km/h (1 Bft)
20/12/2008 17:00 11,2 C 57 % 1022,0 hPa 0,0 l/m 1,5 km/h (1 Bft) O 0,00 h 0,025 mm 5 W/m 3,0 C 11,2 C 2,3 km/h (1 Bft)
20/12/2008 18:00 9,9 C 60 % 1022,1 hPa 0,0 l/m 3,5 km/h (1 Bft) NO 0,00 h 0,025 mm 0 W/m 2,4 C 9,9 C 4,8 km/h (1 Bft)
20/12/2008 19:00 9,7 C 58 % 1021,9 hPa 0,0 l/m 2,2 km/h (1 Bft) NO 0,00 h 0,051 mm 0 W/m 1,7 C 9,6 C 3,4 km/h (1 Bft)
20/12/2008 20:00 9,6 C 55 % 1021,7 hPa 0,0 l/m 4,2 km/h (1 Bft) O-NO 0,00 h 0,051 mm 0 W/m 1,2 C 9,4 C 5,4 km/h (1 Bft)
20/12/2008 21:00 9,5 C 55 % 1021,5 hPa 0,0 l/m 4,3 km/h (1 Bft) O-NO 0,00 h 0,051 mm 0 W/m 1,0 C 9,1 C 5,8 km/h (2 Bft)
20/12/2008 22:00 9,3 C 55 % 1021,2 hPa 0,0 l/m 4,7 km/h (1 Bft) O-NO 0,00 h 0,051 mm 0 W/m 0,7 C 9,0 C 6,5 km/h (2 Bft)
20/12/2008 23:00 8,3 C 59 % 1021,5 hPa 0,0 l/m 2,2 km/h (1 Bft) N-NO 0,00 h 0,051 mm 0 W/m 0,7 C 8,2 C 3,7 km/h (1 Bft)
21/12/2008 00:00 8,5 C 58 % 1021,5 hPa 0,0 l/m 2,7 km/h (1 Bft) N 0,00 h 0,025 mm 0 W/m 0,7 C 8,5 C 4,6 km/h (1 Bft)
21/12/2008 01:00 8,4 C 63 % 1020,9 hPa 0,0 l/m 2,1 km/h (1 Bft) N 0,00 h 0,051 mm 0 W/m 1,9 C 8,4 C 3,9 km/h (1 Bft)
21/12/2008 02:00 8,3 C 63 % 1020,8 hPa 0,0 l/m 3,4 km/h (1 Bft) NO 0,00 h 0,025 mm 0 W/m 1,8 C 8,1 C 4,8 km/h (1 Bft)
21/12/2008 03:00 8,3 C 63 % 1020,6 hPa 0,0 l/m 2,3 km/h (1 Bft) NO 0,00 h 0,025 mm 0 W/m 1,7 C 8,3 C 3,3 km/h (1 Bft)
21/12/2008 04:00 8,1 C 63 % 1020,2 hPa 0,0 l/m 3,0 km/h (1 Bft) NO 0,00 h 0,025 mm 0 W/m 1,4 C 7,9 C 3,9 km/h (1 Bft)
21/12/2008 05:00 7,7 C 63 % 1020,4 hPa 0,0 l/m 4,9 km/h (1 Bft) NO 0,00 h 0,025 mm 0 W/m 1,1 C 7,2 C 6,3 km/h (2 Bft)
21/12/2008 06:00 7,7 C 64 % 1020,7 hPa 0,0 l/m 4,2 km/h (1 Bft) NO 0,00 h 0,051 mm 0 W/m 1,2 C 7,4 C 5,7 km/h (1 Bft)
21/12/2008 07:00 7,8 C 65 % 1021,3 hPa 0,0 l/m 3,5 km/h (1 Bft) NO 0,00 h 0,025 mm 5 W/m 1,6 C 7,6 C 4,9 km/h (1 Bft)
21/12/2008 08:00 8,3 C 69 % 1021,4 hPa 0,0 l/m 3,6 km/h (1 Bft) O-NO 0,65 h 0,025 mm 41 W/m 2,9 C 8,2 C 5,0 km/h (1 Bft)
21/12/2008 09:00 10,8 C 67 % 1021,8 hPa 0,0 l/m 0,9 km/h (0 Bft) O-NO 1,00 h 0,025 mm 165 W/m 4,9 C 10,8 C 1,8 km/h (1 Bft)
21/12/2008 10:00 11,8 C 67 % 1022,6 hPa 0,0 l/m 1,1 km/h (1 Bft) N-NO 1,00 h 0,076 mm 274 W/m 5,9 C 11,8 C 2,5 km/h (1 Bft)
21/12/2008 11:00 13,5 C 76 % 1022,7 hPa 0,0 l/m 3,4 km/h (1 Bft) E-SE 1,00 h 0,152 mm 350 W/m 9,3 C 13,5 C 5,8 km/h (2 Bft)
21/12/2008 12:00 13,9 C 72 % 1022,8 hPa 0,0 l/m 3,0 km/h (1 Bft) NE 1,00 h 0,178 mm 374 W/m 9,0 C 13,9 C 4,8 km/h (1 Bft)
21/12/2008 13:00 14,6 C 69 % 1022,8 hPa 0,0 l/m 3,5 km/h (1 Bft) SE 1,00 h 0,203 mm 347 W/m 9,1 C 14,6 C 5,5 km/h (1 Bft)
21/12/2008 14:00 14,5 C 75 % 1022,8 hPa 0,0 l/m 3,1 km/h (1 Bft) E 1,00 h 0,203 mm 271 W/m 10,1 C 14,5 C 5,6 km/h (1 Bft)
21/12/2008 15:00 13,9 C 77 % 1023,1 hPa 0,0 l/m 1,6 km/h (1 Bft) E 1,00 h 0,152 mm 158 W/m 9,9 C 13,9 C 2,7 km/h (1 Bft)
21/12/2008 16:00 13,0 C 78 % 1023,5 hPa 0,0 l/m 0,5 km/h (0 Bft) E 0,78 h 0,076 mm 40 W/m 9,3 C 13,0 C 0,9 km/h (0 Bft)
21/12/2008 17:00 11,2 C 81 % 1023,7 hPa 0,0 l/m 1,5 km/h (1 Bft) E 0,00 h 0,025 mm 5 W/m 8,1 C 11,2 C 2,4 km/h (1 Bft)
21/12/2008 18:00 10,7 C 86 % 1024,1 hPa 0,0 l/m 1,2 km/h (1 Bft) NO 0,00 h 0,000 mm 0 W/m 8,5 C 10,7 C 1,7 km/h (1 Bft)
21/12/2008 19:00 10,5 C 87 % 1024,4 hPa 0,0 l/m 4,2 km/h (1 Bft) O-NO 0,00 h 0,025 mm 0 W/m 8,4 C 10,5 C 5,7 km/h (1 Bft)
21/12/2008 20:00 10,7 C 79 % 1024,7 hPa 0,0 l/m 2,3 km/h (1 Bft) O-NO 0,00 h 0,025 mm 0 W/m 7,1 C 10,7 C 3,1 km/h (1 Bft)
21/12/2008 21:00 11,3 C 63 % 1025,1 hPa 0,0 l/m 5,1 km/h (1 Bft) O-SO 0,00 h 0,025 mm 0 W/m 4,5 C 11,3 C 6,7 km/h (2 Bft)
21/12/2008 22:00 10,6 C 59 % 1025,5 hPa 0,0 l/m 3,9 km/h (1 Bft) N-NO 0,00 h 0,051 mm 0 W/m 2,9 C 10,6 C 5,3 km/h (1 Bft)
21/12/2008 23:00 11,0 C 57 % 1025,7 hPa 0,0 l/m 3,6 km/h (1 Bft) O 0,00 h 0,051 mm 0 W/m 2,9 C 11,0 C 4,8 km/h (1 Bft)
Min-Date _ 17/12/08 20/12/08 15/12/08 - 15/12/08 - - - - 18/12/08 16/12/08 15/12/08
_ Min-Heure 03:16 12:36 00:00 - 00:32 - - - - 22:11 14:19 02:26
Minimum _ 4,1 C 33 % 998,1 hPa - 0,0 km/h (0 Bft) - - - - -2,4 C 0,5 C 0,0 km/h (0 Bft)
Max-Date _ 20/12/08 15/12/08 21/12/08 16/12/08 15/12/08 - 16/12/08 19/12/08 17/12/08 18/12/08 20/12/08 15/12/08
_ Max-Heure 13:25 13:54 22:30 11:42 23:01 - 15:00 14:01 12:53 12:18 13:25 23:01
Maximum _ 16,5 C 100 % 1025,7 hPa 6,8 l/m 32,2 km/h
N-NE (5 Bft)
- 0,02 h 0,229 mm 445 W/m 14,1 C 16,5 C 51,5 km/h
N-NE (7 Bft)
Moyenne _ 8,6 C 77 % 1011,7 hPa #53,8 l/m 5,6 km/h (1 Bft) NO #33:13 h #7,532 mm 137 W/m 4,3 C 7,9 C 8,5 km/h (2 Bft)
Roquefort les pins